カタログに戻る

STARLINK-3087

運用中通信VLEO
NORAD 49175·PAYLOAD·🇺🇸 United States

打ち上げ Sep 14, 2021 から Vandenberg Space Force Base

Loading…

次のパス (今後24時間)

TLE

最新Source: CelesTrak SupGP

元期: Sep 14, 2026, 21:39 UTC

1 49175C 21082AX  26257.90256944 -.00035414  00000+0 -30305-2 0  2578
2 49175  70.0012 158.9045 0002752 266.7493  74.3134 14.97539311    19

AllMySatでSTARLINK-3087をリアルタイム追跡

Download on the App Store